Time,TemperatureF,DewpointF,PressureIn,WindDirection,WindDirectionDegrees,WindSpeedMPH,WindSpeedGustMPH,Humidity,HourlyPrecipIn,Conditions,Clouds,dailyrainin,SoftwareType,DateUTC
2013-07-09 00:01:00,74.7,73.2,30.08,SSW,210,0.0,0.0,95,0.00,,,0.00,WeatherCatV1.15B25,2013-07-09 05:01:00,
2013-07-09 00:06:00,74.6,73.1,30.09,SSW,210,0.0,0.0,95,0.00,,,0.00,WeatherCatV1.15B25,2013-07-09 05:06:00,
2013-07-09 00:11:00,74.6,73.1,30.08,SSW,210,0.0,0.0,95,0.00,,,0.00,WeatherCatV1.15B25,2013-07-09 05:11:00,
2013-07-09 00:16:00,74.5,73.0,30.08,SSW,210,0.0,0.0,95,0.00,,,0.00,WeatherCatV1.15B25,2013-07-09 05:16:00,
2013-07-09 00:21:00,74.4,72.9,30.08,SSW,210,0.0,0.0,95,0.00,,,0.00,WeatherCatV1.15B25,2013-07-09 05:21:00,
2013-07-09 00:26:00,74.4,72.9,30.08,SSW,210,0.0,0.0,95,0.00,,,0.00,WeatherCatV1.15B25,2013-07-09 05:26:00,
2013-07-09 00:32:00,74.4,73.2,30.07,SSW,210,0.0,0.0,96,0.00,,,0.00,WeatherCatV1.15B25,2013-07-09 05:32:00,
2013-07-09 00:37:00,74.3,73.1,30.07,SSW,210,0.0,0.0,96,0.00,,,0.00,WeatherCatV1.15B25,2013-07-09 05:37:00,
2013-07-09 00:42:00,74.2,72.7,30.07,SSW,210,0.0,0.0,95,0.00,,,0.00,WeatherCatV1.15B25,2013-07-09 05:42:00,
2013-07-09 00:47:00,74.1,72.9,30.08,SSW,210,0.0,0.0,96,0.00,,,0.00,WeatherCatV1.15B25,2013-07-09 05:47:00,
2013-07-09 00:52:00,74.1,72.9,30.07,SSW,210,0.0,0.0,96,0.00,,,0.01,WeatherCatV1.15B25,2013-07-09 05:52:00,
2013-07-09 00:57:00,74.0,72.8,30.07,SSW,210,0.0,0.0,96,0.00,,,0.01,WeatherCatV1.15B25,2013-07-09 05:57:00,
2013-07-09 01:02:00,73.8,72.6,30.07,SSW,210,0.0,0.0,96,0.00,,,0.01,WeatherCatV1.15B25,2013-07-09 06:02:00,
2013-07-09 01:07:00,73.8,72.6,30.07,SSW,210,0.0,0.0,96,0.00,,,0.01,WeatherCatV1.15B25,2013-07-09 06:07:00,
2013-07-09 01:12:00,73.7,72.5,30.07,SSW,210,0.0,0.0,96,0.00,,,0.01,WeatherCatV1.15B25,2013-07-09 06:12:00,
2013-07-09 01:17:00,73.6,72.4,30.07,SSW,210,0.0,0.0,96,0.00,,,0.01,WeatherCatV1.15B25,2013-07-09 06:17:00,
2013-07-09 01:22:00,73.5,72.3,30.07,SSW,210,0.0,0.0,96,0.00,,,0.01,WeatherCatV1.15B25,2013-07-09 06:22:00,
2013-07-09 01:27:00,73.5,72.3,30.07,SSW,210,0.0,0.0,96,0.00,,,0.01,WeatherCatV1.15B25,2013-07-09 06:27:00,
2013-07-09 01:32:00,73.5,72.3,30.07,SSW,210,0.0,0.0,96,0.00,,,0.01,WeatherCatV1.15B25,2013-07-09 06:32:00,
2013-07-09 01:37:00,73.4,72.2,30.07,SSW,210,0.0,0.0,96,0.00,,,0.01,WeatherCatV1.15B25,2013-07-09 06:37:00,
2013-07-09 01:42:00,73.4,72.2,30.07,SSW,210,0.0,0.0,96,0.00,,,0.01,WeatherCatV1.15B25,2013-07-09 06:42:00,
2013-07-09 01:47:00,73.4,72.2,30.07,SSW,210,0.0,0.0,96,0.00,,,0.01,WeatherCatV1.15B25,2013-07-09 06:47:00,
2013-07-09 01:52:00,73.4,72.5,30.07,SSW,210,0.0,0.0,97,0.00,,,0.01,WeatherCatV1.15B25,2013-07-09 06:52:00,
2013-07-09 01:57:00,73.4,72.5,30.07,SSW,210,0.0,0.0,97,0.00,,,0.01,WeatherCatV1.15B25,2013-07-09 06:57:00,
2013-07-09 02:02:00,73.4,72.5,30.07,SSW,210,0.0,0.0,97,0.00,,,0.01,WeatherCatV1.15B25,2013-07-09 07:02:00,
2013-07-09 02:07:00,73.5,72.6,30.07,SSW,210,0.0,0.0,97,0.00,,,0.01,WeatherCatV1.15B25,2013-07-09 07:07:00,
2013-07-09 02:12:00,73.5,72.6,30.07,SSW,210,0.0,0.0,97,0.00,,,0.01,WeatherCatV1.15B25,2013-07-09 07:12:00,
2013-07-09 02:17:00,73.5,72.6,30.07,SSW,210,0.0,0.0,97,0.00,,,0.01,WeatherCatV1.15B25,2013-07-09 07:17:00,
2013-07-09 02:22:00,73.4,72.5,30.07,SSW,210,0.0,0.0,97,0.00,,,0.01,WeatherCatV1.15B25,2013-07-09 07:22:00,
2013-07-09 02:27:00,73.4,72.5,30.07,SSW,210,0.0,0.0,97,0.00,,,0.01,WeatherCatV1.15B25,2013-07-09 07:27:00,
2013-07-09 02:32:00,73.4,72.5,30.07,SSW,210,0.0,0.0,97,0.00,,,0.01,WeatherCatV1.15B25,2013-07-09 07:32:00,
2013-07-09 02:37:00,73.4,72.5,30.07,SSW,210,0.0,0.0,97,0.00,,,0.01,WeatherCatV1.15B25,2013-07-09 07:37:00,
2013-07-09 02:42:00,73.3,72.4,30.07,SSW,210,0.0,0.0,97,0.00,,,0.01,WeatherCatV1.15B25,2013-07-09 07:42:00,
2013-07-09 02:47:00,73.3,72.4,30.07,SSW,210,0.0,0.0,97,0.00,,,0.01,WeatherCatV1.15B25,2013-07-09 07:47:00,
2013-07-09 02:52:00,73.3,72.4,30.07,SSW,210,0.0,0.0,97,0.00,,,0.01,WeatherCatV1.15B25,2013-07-09 07:52:00,
2013-07-09 02:57:00,73.3,72.4,30.07,SSW,210,0.0,0.0,97,0.00,,,0.01,WeatherCatV1.15B25,2013-07-09 07:57:00,
2013-07-09 03:03:00,73.4,72.5,30.07,SSW,210,0.0,0.0,97,0.00,,,0.01,WeatherCatV1.15B25,2013-07-09 08:03:00,
2013-07-09 03:08:00,73.4,72.5,30.07,SSW,210,0.0,0.0,97,0.00,,,0.01,WeatherCatV1.15B25,2013-07-09 08:08:00,
2013-07-09 03:13:00,73.5,72.6,30.07,SSW,210,0.0,0.0,97,0.00,,,0.01,WeatherCatV1.15B25,2013-07-09 08:13:00,
2013-07-09 03:18:00,73.6,72.7,30.06,SSW,210,0.0,0.0,97,0.00,,,0.01,WeatherCatV1.15B25,2013-07-09 08:18:00,
2013-07-09 03:23:00,73.7,73.1,30.06,SSW,210,0.0,0.0,98,0.00,,,0.01,WeatherCatV1.15B25,2013-07-09 08:23:00,
2013-07-09 03:28:00,73.8,73.2,30.06,SSW,210,0.0,0.0,98,0.00,,,0.01,WeatherCatV1.15B25,2013-07-09 08:28:00,
2013-07-09 03:33:00,73.9,73.3,30.06,SSW,210,0.0,0.0,98,0.00,,,0.01,WeatherCatV1.15B25,2013-07-09 08:33:00,
2013-07-09 03:38:00,73.8,72.9,30.06,SSW,210,0.0,0.0,97,0.00,,,0.01,WeatherCatV1.15B25,2013-07-09 08:38:00,
2013-07-09 03:43:00,73.7,72.8,30.06,SSW,210,0.0,0.0,97,0.00,,,0.01,WeatherCatV1.15B25,2013-07-09 08:43:00,
2013-07-09 03:48:00,73.7,72.8,30.06,SSW,210,0.0,0.0,97,0.00,,,0.01,WeatherCatV1.15B25,2013-07-09 08:48:00,
2013-07-09 03:53:00,73.7,72.8,30.07,SSW,210,0.0,0.0,97,0.00,,,0.01,WeatherCatV1.15B25,2013-07-09 08:53:00,
2013-07-09 03:58:00,73.6,72.7,30.07,SSW,210,0.0,0.0,97,0.00,,,0.01,WeatherCatV1.15B25,2013-07-09 08:58:00,
2013-07-09 04:03:00,73.6,72.7,30.06,SSW,210,0.0,0.0,97,0.00,,,0.01,WeatherCatV1.15B25,2013-07-09 09:03:00,
2013-07-09 04:08:00,73.6,72.7,30.07,SSW,210,0.0,0.0,97,0.00,,,0.01,WeatherCatV1.15B25,2013-07-09 09:08:00,
2013-07-09 04:13:00,73.6,72.7,30.07,SSW,210,0.0,0.0,97,0.00,,,0.01,WeatherCatV1.15B25,2013-07-09 09:13:00,
2013-07-09 04:18:00,73.5,72.6,30.06,SSW,210,0.0,0.0,97,0.00,,,0.01,WeatherCatV1.15B25,2013-07-09 09:18:00,
2013-07-09 04:23:00,73.5,72.9,30.07,SSW,210,0.0,0.0,98,0.00,,,0.01,WeatherCatV1.15B25,2013-07-09 09:23:00,
2013-07-09 04:28:00,73.7,73.1,30.07,SSW,210,0.0,0.0,98,0.00,,,0.01,WeatherCatV1.15B25,2013-07-09 09:28:00,
2013-07-09 04:33:00,73.9,73.3,30.07,SSW,210,0.0,0.0,98,0.00,,,0.01,WeatherCatV1.15B25,2013-07-09 09:33:00,
2013-07-09 04:38:00,74.0,73.4,30.06,SSW,210,0.0,0.0,98,0.00,,,0.01,WeatherCatV1.15B25,2013-07-09 09:38:00,
2013-07-09 04:43:00,74.1,73.5,30.06,SSW,210,0.0,0.0,98,0.00,,,0.01,WeatherCatV1.15B25,2013-07-09 09:43:00,
2013-07-09 04:48:00,74.2,73.6,30.06,SSW,210,0.0,0.0,98,0.00,,,0.01,WeatherCatV1.15B25,2013-07-09 09:48:00,
2013-07-09 04:53:00,74.2,73.6,30.06,SSW,210,0.0,0.0,98,0.00,,,0.01,WeatherCatV1.15B25,2013-07-09 09:53:00,
2013-07-09 04:58:00,74.4,73.8,30.07,SSW,210,0.0,0.0,98,0.00,,,0.01,WeatherCatV1.15B25,2013-07-09 09:58:00,
2013-07-09 05:03:00,74.5,73.9,30.06,SSW,210,0.0,0.0,98,0.00,,,0.01,WeatherCatV1.15B25,2013-07-09 10:03:00,
2013-07-09 05:08:00,74.6,74.0,30.06,SSW,210,0.0,0.0,98,0.00,,,0.01,WeatherCatV1.15B25,2013-07-09 10:08:00,
2013-07-09 05:13:00,74.6,74.0,30.06,SSW,210,0.0,0.0,98,0.00,,,0.01,WeatherCatV1.15B25,2013-07-09 10:13:00,
2013-07-09 05:18:00,74.7,74.1,30.06,SSW,210,0.0,1.0,98,0.00,,,0.01,WeatherCatV1.15B25,2013-07-09 10:18:00,
2013-07-09 05:23:00,74.8,74.2,30.06,WSW,251,0.0,2.0,98,0.00,,,0.01,WeatherCatV1.15B25,2013-07-09 10:23:00,
2013-07-09 05:28:00,74.8,74.2,30.06,WSW,251,0.0,1.0,98,0.00,,,0.01,WeatherCatV1.15B25,2013-07-09 10:28:00,
2013-07-09 05:34:00,74.9,74.3,30.06,WSW,251,0.0,0.0,98,0.00,,,0.01,WeatherCatV1.15B25,2013-07-09 10:34:00,
2013-07-09 05:39:00,74.9,74.3,30.07,WSW,251,0.0,0.0,98,0.00,,,0.01,WeatherCatV1.15B25,2013-07-09 10:39:00,
2013-07-09 05:44:00,74.9,74.3,30.06,WSW,251,0.0,0.0,98,0.00,,,0.01,WeatherCatV1.15B25,2013-07-09 10:44:00,
2013-07-09 05:49:00,75.0,74.4,30.06,WSW,251,0.0,0.0,98,0.00,,,0.01,WeatherCatV1.15B25,2013-07-09 10:49:00,
2013-07-09 05:54:00,75.0,74.4,30.06,WSW,251,0.0,0.0,98,0.00,,,0.01,WeatherCatV1.15B25,2013-07-09 10:54:00,
2013-07-09 05:59:00,75.0,74.4,30.06,WSW,251,0.0,0.0,98,0.00,,,0.01,WeatherCatV1.15B25,2013-07-09 10:59:00,
2013-07-09 06:04:00,75.0,74.4,30.06,WSW,251,0.0,2.0,98,0.00,,,0.01,WeatherCatV1.15B25,2013-07-09 11:04:00,
2013-07-09 06:09:00,75.1,74.5,30.07,WSW,251,0.0,1.0,98,0.00,,,0.01,WeatherCatV1.15B25,2013-07-09 11:09:00,
2013-07-09 06:14:00,75.1,74.5,30.07,WSW,251,0.0,1.0,98,0.00,,,0.01,WeatherCatV1.15B25,2013-07-09 11:14:00,
2013-07-09 06:19:00,75.1,74.5,30.07,WSW,251,0.0,0.0,98,0.00,,,0.01,WeatherCatV1.15B25,2013-07-09 11:19:00,
2013-07-09 06:24:00,75.1,74.5,30.07,WSW,251,0.0,0.0,98,0.00,,,0.01,WeatherCatV1.15B25,2013-07-09 11:24:00,
2013-07-09 06:29:00,75.1,74.5,30.07,WSW,251,0.0,0.0,98,0.00,,,0.01,WeatherCatV1.15B25,2013-07-09 11:29:00,
2013-07-09 06:34:00,75.1,74.5,30.07,WSW,251,0.0,0.0,98,0.00,,,0.01,WeatherCatV1.15B25,2013-07-09 11:34:00,
2013-07-09 06:39:00,75.2,74.6,30.07,WSW,251,0.0,1.0,98,0.00,,,0.01,WeatherCatV1.15B25,2013-07-09 11:39:00,
2013-07-09 06:44:00,75.2,74.6,30.07,SW,224,0.0,1.0,98,0.00,,,0.01,WeatherCatV1.15B25,2013-07-09 11:44:00,
2013-07-09 06:49:00,75.2,74.6,30.07,SW,224,0.0,0.0,98,0.00,,,0.01,WeatherCatV1.15B25,2013-07-09 11:49:00,
2013-07-09 06:54:00,75.3,74.7,30.07,SW,224,0.0,0.0,98,0.00,,,0.01,WeatherCatV1.15B25,2013-07-09 11:54:00,
2013-07-09 06:59:00,75.3,74.7,30.08,SW,224,0.0,0.0,98,0.00,,,0.01,WeatherCatV1.15B25,2013-07-09 11:59:00,
2013-07-09 07:04:00,75.2,74.6,30.08,SW,224,0.0,0.0,98,0.00,,,0.01,WeatherCatV1.15B25,2013-07-09 12:04:00,
2013-07-09 07:09:00,75.1,74.5,30.08,SW,224,0.0,0.0,98,0.00,,,0.01,WeatherCatV1.15B25,2013-07-09 12:09:00,
2013-07-09 07:14:00,75.1,74.5,30.08,SW,224,0.0,0.0,98,0.00,,,0.01,WeatherCatV1.15B25,2013-07-09 12:14:00,
2013-07-09 07:19:00,75.1,74.5,30.08,SW,224,0.0,0.0,98,0.00,,,0.01,WeatherCatV1.15B25,2013-07-09 12:19:00,
2013-07-09 07:24:00,75.1,74.5,30.08,SW,224,0.0,1.0,98,0.00,,,0.01,WeatherCatV1.15B25,2013-07-09 12:24:00,
2013-07-09 07:29:00,75.1,74.5,30.09,SW,224,0.0,0.0,98,0.00,,,0.01,WeatherCatV1.15B25,2013-07-09 12:29:00,
2013-07-09 07:34:00,75.1,74.5,30.09,SW,224,0.0,1.0,98,0.00,,,0.01,WeatherCatV1.15B25,2013-07-09 12:34:00,
2013-07-09 07:39:00,75.2,74.6,30.09,SW,224,0.0,0.0,98,0.00,,,0.01,WeatherCatV1.15B25,2013-07-09 12:39:00,
2013-07-09 07:44:00,75.4,74.8,30.09,SW,224,0.0,0.0,98,0.00,,,0.01,WeatherCatV1.15B25,2013-07-09 12:44:00,
2013-07-09 07:49:00,75.4,74.8,30.09,SW,224,0.0,0.0,98,0.00,,,0.01,WeatherCatV1.15B25,2013-07-09 12:49:00,
2013-07-09 07:54:00,75.4,74.8,30.09,SW,224,0.0,1.0,98,0.00,,,0.01,WeatherCatV1.15B25,2013-07-09 12:54:00,
2013-07-09 07:59:00,75.4,74.8,30.10,SW,224,0.0,0.0,98,0.00,,,0.01,WeatherCatV1.15B25,2013-07-09 12:59:00,
2013-07-09 08:05:00,75.5,74.9,30.10,SW,224,0.0,0.0,98,0.00,,,0.01,WeatherCatV1.15B25,2013-07-09 13:05:00,
2013-07-09 08:10:00,75.8,75.5,30.10,SW,224,0.0,1.0,99,0.00,,,0.01,WeatherCatV1.15B25,2013-07-09 13:10:00,
2013-07-09 08:15:00,75.9,75.3,30.11,SW,224,0.0,0.0,98,0.00,,,0.01,WeatherCatV1.15B25,2013-07-09 13:15:00,
2013-07-09 08:20:00,76.0,75.4,30.11,East,99,1.0,2.0,98,0.00,,,0.01,WeatherCatV1.15B25,2013-07-09 13:20:00,
2013-07-09 08:25:00,76.1,75.5,30.11,ESE,111,0.0,0.0,98,0.00,,,0.01,WeatherCatV1.15B25,2013-07-09 13:25:00,
2013-07-09 08:30:00,76.1,75.5,30.11,ESE,108,0.0,1.0,98,0.00,,,0.01,WeatherCatV1.15B25,2013-07-09 13:30:00,
2013-07-09 08:35:00,75.9,75.3,30.11,ESE,108,0.0,0.0,98,0.00,,,0.01,WeatherCatV1.15B25,2013-07-09 13:35:00,
2013-07-09 08:40:00,76.0,75.4,30.11,ESE,108,1.0,1.0,98,0.00,,,0.01,WeatherCatV1.15B25,2013-07-09 13:40:00,
2013-07-09 08:45:00,76.2,75.6,30.11,SSW,200,0.0,2.0,98,0.00,,,0.01,WeatherCatV1.15B25,2013-07-09 13:45:00,
2013-07-09 08:50:00,76.3,75.4,30.11,SE,127,0.0,2.0,97,0.00,,,0.01,WeatherCatV1.15B25,2013-07-09 13:50:00,
2013-07-09 08:55:00,76.2,75.3,30.11,South,185,0.0,1.0,97,0.00,,,0.01,WeatherCatV1.15B25,2013-07-09 13:55:00,
2013-07-09 09:00:00,76.6,75.7,30.11,South,185,0.0,1.0,97,0.00,,,0.01,WeatherCatV1.15B25,2013-07-09 14:00:00,
2013-07-09 09:05:00,77.0,75.8,30.11,South,185,0.0,1.0,96,0.00,,,0.01,WeatherCatV1.15B25,2013-07-09 14:05:00,
2013-07-09 09:10:00,77.2,75.7,30.11,ESE,107,0.0,4.0,95,0.00,,,0.01,WeatherCatV1.15B25,2013-07-09 14:10:00,
2013-07-09 09:15:00,77.5,75.6,30.12,SSE,150,0.0,1.0,94,0.00,,,0.01,WeatherCatV1.15B25,2013-07-09 14:15:00,
2013-07-09 09:20:00,77.7,75.5,30.12,SSE,166,1.0,3.0,93,0.00,,,0.01,WeatherCatV1.15B25,2013-07-09 14:20:00,
2013-07-09 09:26:00,78.5,76.0,30.11,SE,141,0.0,1.0,92,0.00,,,0.01,WeatherCatV1.15B25,2013-07-09 14:26:00,
2013-07-09 09:31:00,79.7,76.2,30.12,South,191,0.0,3.0,89,0.00,,,0.01,WeatherCatV1.15B25,2013-07-09 14:31:00,
2013-07-09 09:36:00,80.5,75.6,30.12,SSE,147,0.0,4.0,85,0.00,,,0.01,WeatherCatV1.15B25,2013-07-09 14:36:00,
2013-07-09 09:41:00,81.1,76.1,30.12,WSW,240,0.0,2.0,85,0.00,,,0.01,WeatherCatV1.15B25,2013-07-09 14:41:00,
2013-07-09 09:46:00,81.6,76.3,30.12,SSE,155,1.0,2.0,84,0.00,,,0.01,WeatherCatV1.15B25,2013-07-09 14:46:00,
2013-07-09 09:51:00,82.1,76.8,30.11,South,171,0.0,4.0,84,0.00,,,0.01,WeatherCatV1.15B25,2013-07-09 14:51:00,
2013-07-09 09:56:00,82.3,75.9,30.12,South,189,1.0,5.0,81,0.00,,,0.01,WeatherCatV1.15B25,2013-07-09 14:56:00,
2013-07-09 10:01:00,81.6,75.2,30.12,South,175,0.0,2.0,81,0.00,,,0.01,WeatherCatV1.15B25,2013-07-09 15:01:00,
2013-07-09 10:06:00,81.3,75.3,30.11,South,185,1.0,2.0,82,0.00,,,0.01,WeatherCatV1.15B25,2013-07-09 15:06:00,
2013-07-09 10:11:00,81.1,75.1,30.11,South,185,0.0,0.0,82,0.00,,,0.01,WeatherCatV1.15B25,2013-07-09 15:11:00,
2013-07-09 10:16:00,81.5,75.5,30.11,SE,138,0.0,1.0,82,0.00,,,0.01,WeatherCatV1.15B25,2013-07-09 15:16:00,
2013-07-09 10:21:00,82.7,75.9,30.11,ESE,107,4.0,4.0,80,0.00,,,0.01,WeatherCatV1.15B25,2013-07-09 15:21:00,
2013-07-09 10:26:00,83.7,75.7,30.11,SSE,148,0.0,1.0,77,0.00,,,0.01,WeatherCatV1.15B25,2013-07-09 15:26:00,
2013-07-09 10:31:00,84.3,75.5,30.11,SSE,147,0.0,2.0,75,0.00,,,0.01,WeatherCatV1.15B25,2013-07-09 15:31:00,
2013-07-09 10:36:00,84.7,74.6,30.11,East,101,0.0,1.0,72,0.00,,,0.01,WeatherCatV1.15B25,2013-07-09 15:36:00,
2013-07-09 10:41:00,85.2,75.1,30.10,SSE,161,0.0,4.0,72,0.00,,,0.01,WeatherCatV1.15B25,2013-07-09 15:41:00,
2013-07-09 10:46:00,85.6,74.2,30.11,SSE,153,2.0,3.0,69,0.00,,,0.01,WeatherCatV1.15B25,2013-07-09 15:46:00,
2013-07-09 10:51:00,85.5,74.1,30.11,SSW,209,1.0,6.0,69,0.00,,,0.01,WeatherCatV1.15B25,2013-07-09 15:51:00,
2013-07-09 10:56:00,85.5,74.1,30.10,SE,136,1.0,2.0,69,0.00,,,0.01,WeatherCatV1.15B25,2013-07-09 15:56:00,
2013-07-09 11:01:00,85.9,74.9,30.10,SE,143,0.0,2.0,70,0.00,,,0.01,WeatherCatV1.15B25,2013-07-09 16:01:00,
2013-07-09 11:06:00,86.7,75.3,30.10,ENE,62,1.0,2.0,69,0.00,,,0.01,WeatherCatV1.15B25,2013-07-09 16:06:00,
2013-07-09 11:11:00,87.2,74.4,30.10,ESE,109,4.0,4.0,66,0.00,,,0.01,WeatherCatV1.15B25,2013-07-09 16:11:00,
2013-07-09 11:16:00,87.3,75.0,30.10,SW,216,2.0,2.0,67,0.00,,,0.01,WeatherCatV1.15B25,2013-07-09 16:16:00,
2013-07-09 11:21:00,87.6,73.9,30.10,South,176,0.0,4.0,64,0.00,,,0.01,WeatherCatV1.15B25,2013-07-09 16:21:00,
2013-07-09 11:26:00,88.3,74.5,30.09,South,172,0.0,1.0,64,0.00,,,0.01,WeatherCatV1.15B25,2013-07-09 16:26:00,
2013-07-09 11:31:00,88.7,74.4,30.10,South,184,1.0,2.0,63,0.00,,,0.01,WeatherCatV1.15B25,2013-07-09 16:31:00,
2013-07-09 11:36:00,88.6,73.9,30.10,ENE,61,1.0,2.0,62,0.00,,,0.01,WeatherCatV1.15B25,2013-07-09 16:36:00,
2013-07-09 11:41:00,88.8,74.1,30.10,ESE,111,1.0,2.0,62,0.00,,,0.01,WeatherCatV1.15B25,2013-07-09 16:41:00,
2013-07-09 11:46:00,89.0,73.3,30.09,SW,221,2.0,4.0,60,0.00,,,0.01,WeatherCatV1.15B25,2013-07-09 16:46:00,
2013-07-09 11:52:00,89.3,73.6,30.09,SSW,209,1.0,3.0,60,0.00,,,0.01,WeatherCatV1.15B25,2013-07-09 16:52:00,
2013-07-09 11:57:00,89.2,73.0,30.09,SSW,207,0.0,3.0,59,0.00,,,0.01,WeatherCatV1.15B25,2013-07-09 16:57:00,
2013-07-09 12:02:00,89.5,73.2,30.09,SW,214,2.0,4.0,59,0.00,,,0.01,WeatherCatV1.15B25,2013-07-09 17:02:00,
2013-07-09 12:07:00,89.8,73.5,30.09,SE,139,0.0,1.0,59,0.00,,,0.01,WeatherCatV1.15B25,2013-07-09 17:07:00,
2013-07-09 12:12:00,90.0,72.7,30.09,East,96,0.0,2.0,57,0.00,,,0.01,WeatherCatV1.15B25,2013-07-09 17:12:00,
2013-07-09 12:17:00,89.9,73.6,30.09,West,265,1.0,5.0,59,0.00,,,0.01,WeatherCatV1.15B25,2013-07-09 17:17:00,
2013-07-09 12:22:00,90.0,72.7,30.09,SSW,211,0.0,1.0,57,0.00,,,0.01,WeatherCatV1.15B25,2013-07-09 17:22:00,
2013-07-09 12:27:00,90.6,72.7,30.08,South,188,0.0,4.0,56,0.00,,,0.01,WeatherCatV1.15B25,2013-07-09 17:27:00,
2013-07-09 12:32:00,90.9,73.0,30.08,SSE,157,1.0,3.0,56,0.00,,,0.01,WeatherCatV1.15B25,2013-07-09 17:32:00,
2013-07-09 12:37:00,91.7,73.2,30.08,SSW,208,1.0,3.0,55,0.00,,,0.01,WeatherCatV1.15B25,2013-07-09 17:37:00,
2013-07-09 12:42:00,92.0,73.5,30.08,SSE,159,0.0,1.0,55,0.00,,,0.01,WeatherCatV1.15B25,2013-07-09 17:42:00,
2013-07-09 12:47:00,92.5,73.4,30.08,East,86,0.0,1.0,54,0.00,,,0.01,WeatherCatV1.15B25,2013-07-09 17:47:00,
2013-07-09 12:52:00,92.2,73.1,30.08,SSW,194,1.0,3.0,54,0.00,,,0.01,WeatherCatV1.15B25,2013-07-09 17:52:00,
2013-07-09 12:57:00,92.1,72.5,30.07,SSE,150,0.0,2.0,53,0.00,,,0.01,WeatherCatV1.15B25,2013-07-09 17:57:00,
2013-07-09 13:03:00,92.0,72.9,30.07,ESE,107,0.0,2.0,54,0.00,,,0.01,WeatherCatV1.15B25,2013-07-09 18:03:00,
2013-07-09 13:08:00,92.6,72.9,30.07,ENE,74,0.0,4.0,53,0.00,,,0.01,WeatherCatV1.15B25,2013-07-09 18:08:00,
2013-07-09 13:13:00,93.7,73.4,30.07,SSW,196,3.0,4.0,52,0.00,,,0.01,WeatherCatV1.15B25,2013-07-09 18:13:00,
2013-07-09 13:18:00,93.9,72.4,30.07,SE,138,0.0,1.0,50,0.00,,,0.01,WeatherCatV1.15B25,2013-07-09 18:18:00,
2013-07-09 13:23:00,93.7,72.8,30.07,SE,134,0.0,2.0,51,0.00,,,0.01,WeatherCatV1.15B25,2013-07-09 18:23:00,
2013-07-09 13:28:00,93.7,72.8,30.06,NE,49,0.0,1.0,51,0.00,,,0.01,WeatherCatV1.15B25,2013-07-09 18:28:00,
2013-07-09 13:33:00,93.6,72.1,30.06,SSE,165,4.0,4.0,50,0.00,,,0.01,WeatherCatV1.15B25,2013-07-09 18:33:00,
2013-07-09 13:38:00,93.2,71.7,30.06,SSE,153,0.0,2.0,50,0.00,,,0.01,WeatherCatV1.15B25,2013-07-09 18:38:00,
2013-07-09 13:43:00,92.8,71.4,30.06,ESE,107,2.0,4.0,50,0.00,,,0.01,WeatherCatV1.15B25,2013-07-09 18:43:00,
2013-07-09 13:48:00,93.4,71.9,30.06,ESE,103,2.0,5.0,50,0.00,,,0.01,WeatherCatV1.15B25,2013-07-09 18:48:00,
2013-07-09 13:53:00,93.7,71.0,30.05,East,82,0.0,1.0,48,0.00,,,0.01,WeatherCatV1.15B25,2013-07-09 18:53:00,
2013-07-09 13:58:00,93.7,72.2,30.05,SSE,150,2.0,4.0,50,0.00,,,0.01,WeatherCatV1.15B25,2013-07-09 18:58:00,
2013-07-09 14:03:00,94.2,72.1,30.05,SSW,192,0.0,2.0,49,0.00,,,0.01,WeatherCatV1.15B25,2013-07-09 19:03:00,
2013-07-09 14:08:00,94.6,72.4,30.04,South,179,1.0,2.0,49,0.00,,,0.01,WeatherCatV1.15B25,2013-07-09 19:08:00,
2013-07-09 14:13:00,94.4,71.6,30.04,South,179,0.0,1.0,48,0.00,,,0.01,WeatherCatV1.15B25,2013-07-09 19:13:00,
2013-07-09 14:18:00,94.5,72.3,30.04,SSW,202,0.0,1.0,49,0.00,,,0.01,WeatherCatV1.15B25,2013-07-09 19:18:00,
2013-07-09 14:23:00,94.8,72.0,30.04,NNE,19,1.0,2.0,48,0.00,,,0.01,WeatherCatV1.15B25,2013-07-09 19:23:00,
2013-07-09 14:28:00,94.8,71.4,30.04,ENE,78,0.0,1.0,47,0.00,,,0.01,WeatherCatV1.15B25,2013-07-09 19:28:00,
2013-07-09 14:33:00,94.4,71.6,30.04,SSE,150,1.0,2.0,48,0.00,,,0.01,WeatherCatV1.15B25,2013-07-09 19:33:00,
2013-07-09 14:38:00,94.6,70.6,30.03,SW,225,3.0,4.0,46,0.00,,,0.01,WeatherCatV1.15B25,2013-07-09 19:38:00,
2013-07-09 14:43:00,95.0,71.6,30.03,East,82,2.0,4.0,47,0.00,,,0.01,WeatherCatV1.15B25,2013-07-09 19:43:00,
2013-07-09 14:48:00,95.6,72.1,30.03,SW,234,1.0,3.0,47,0.00,,,0.01,WeatherCatV1.15B25,2013-07-09 19:48:00,
2013-07-09 14:53:00,95.9,71.1,30.03,WNW,284,4.0,4.0,45,0.00,,,0.01,WeatherCatV1.15B25,2013-07-09 19:53:00,
2013-07-09 14:58:00,95.9,71.1,30.03,East,96,0.0,6.0,45,0.00,,,0.01,WeatherCatV1.15B25,2013-07-09 19:58:00,
2013-07-09 15:03:00,95.1,70.4,30.03,SSE,149,1.0,6.0,45,0.00,,,0.01,WeatherCatV1.15B25,2013-07-09 20:03:00,
2013-07-09 15:08:00,95.5,72.0,30.03,South,172,0.0,2.0,47,0.00,,,0.01,WeatherCatV1.15B25,2013-07-09 20:08:00,
2013-07-09 15:13:00,96.2,71.4,30.03,ENE,65,2.0,4.0,45,0.00,,,0.01,WeatherCatV1.15B25,2013-07-09 20:13:00,
2013-07-09 15:18:00,96.5,70.3,30.03,SE,132,4.0,5.0,43,0.00,,,0.01,WeatherCatV1.15B25,2013-07-09 20:18:00,
2013-07-09 15:23:00,96.3,70.8,30.02,East,82,2.0,3.0,44,0.00,,,0.01,WeatherCatV1.15B25,2013-07-09 20:23:00,
2013-07-09 15:28:00,96.7,71.1,30.02,SW,235,2.0,5.0,44,0.00,,,0.01,WeatherCatV1.15B25,2013-07-09 20:28:00,
2013-07-09 15:34:00,97.0,71.4,30.02,East,89,0.0,2.0,44,0.00,,,0.01,WeatherCatV1.15B25,2013-07-09 20:34:00,
2013-07-09 15:39:00,97.3,70.3,30.01,SW,220,0.0,3.0,42,0.00,,,0.01,WeatherCatV1.15B25,2013-07-09 20:39:00,
2013-07-09 15:44:00,96.9,72.0,30.01,ENE,65,1.0,2.0,45,0.00,,,0.01,WeatherCatV1.15B25,2013-07-09 20:44:00,
2013-07-09 15:49:00,96.5,71.6,30.01,ESE,109,0.0,0.0,45,0.00,,,0.01,WeatherCatV1.15B25,2013-07-09 20:49:00,
2013-07-09 15:54:00,96.5,71.0,30.01,ENE,64,1.0,3.0,44,0.00,,,0.01,WeatherCatV1.15B25,2013-07-09 20:54:00,
2013-07-09 15:59:00,96.7,71.1,30.01,ENE,69,1.0,2.0,44,0.00,,,0.01,WeatherCatV1.15B25,2013-07-09 20:59:00,
2013-07-09 16:04:00,96.5,71.0,30.00,East,79,2.0,5.0,44,0.00,,,0.01,WeatherCatV1.15B25,2013-07-09 21:04:00,
2013-07-09 16:09:00,96.5,69.6,30.00,SSE,158,1.0,3.0,42,0.00,,,0.01,WeatherCatV1.15B25,2013-07-09 21:09:00,
2013-07-09 16:14:00,96.6,71.1,30.00,South,169,2.0,2.0,44,0.00,,,0.01,WeatherCatV1.15B25,2013-07-09 21:14:00,
2013-07-09 16:19:00,96.2,71.4,30.00,ESE,107,1.0,4.0,45,0.00,,,0.01,WeatherCatV1.15B25,2013-07-09 21:19:00,
2013-07-09 16:24:00,96.8,70.6,30.00,NE,39,2.0,5.0,43,0.00,,,0.01,WeatherCatV1.15B25,2013-07-09 21:24:00,
2013-07-09 16:29:00,97.3,70.3,29.99,East,96,0.0,3.0,42,0.00,,,0.01,WeatherCatV1.15B25,2013-07-09 21:29:00,
2013-07-09 16:34:00,97.4,70.4,29.99,ENE,75,1.0,2.0,42,0.00,,,0.01,WeatherCatV1.15B25,2013-07-09 21:34:00,
2013-07-09 16:39:00,96.9,69.9,29.99,ESE,121,0.0,1.0,42,0.00,,,0.01,WeatherCatV1.15B25,2013-07-09 21:39:00,
2013-07-09 16:44:00,96.3,70.8,29.99,SSW,211,0.0,2.0,44,0.00,,,0.01,WeatherCatV1.15B25,2013-07-09 21:44:00,
2013-07-09 16:49:00,96.0,70.5,29.99,SSE,159,1.0,2.0,44,0.00,,,0.01,WeatherCatV1.15B25,2013-07-09 21:49:00,
2013-07-09 16:54:00,95.6,70.2,29.99,SSE,147,0.0,2.0,44,0.00,,,0.01,WeatherCatV1.15B25,2013-07-09 21:54:00,
2013-07-09 16:59:00,95.8,71.0,29.99,SSE,147,0.0,1.0,45,0.00,,,0.01,WeatherCatV1.15B25,2013-07-09 21:59:00,
2013-07-09 17:04:00,96.2,70.0,29.98,SSE,151,0.0,1.0,43,0.00,,,0.01,WeatherCatV1.15B25,2013-07-09 22:04:00,
2013-07-09 17:09:00,96.7,70.5,29.98,SSW,208,0.0,2.0,43,0.00,,,0.01,WeatherCatV1.15B25,2013-07-09 22:09:00,
2013-07-09 17:14:00,97.3,71.0,29.98,East,80,3.0,5.0,43,0.00,,,0.01,WeatherCatV1.15B25,2013-07-09 22:14:00,
2013-07-09 17:19:00,96.4,70.2,29.98,ENE,63,3.0,5.0,43,0.00,,,0.01,WeatherCatV1.15B25,2013-07-09 22:19:00,
2013-07-09 17:24:00,95.7,70.2,29.97,ENE,65,0.0,0.0,44,0.00,,,0.01,WeatherCatV1.15B25,2013-07-09 22:24:00,
2013-07-09 17:29:00,96.0,70.5,29.97,ESE,104,4.0,4.0,44,0.00,,,0.01,WeatherCatV1.15B25,2013-07-09 22:29:00,
2013-07-09 17:34:00,95.9,70.4,29.97,SE,143,0.0,2.0,44,0.00,,,0.01,WeatherCatV1.15B25,2013-07-09 22:34:00,
2013-07-09 17:39:00,95.8,70.3,29.97,SE,141,0.0,2.0,44,0.00,,,0.01,WeatherCatV1.15B25,2013-07-09 22:39:00,
2013-07-09 17:44:00,95.3,70.5,29.97,ESE,106,2.0,6.0,45,0.00,,,0.01,WeatherCatV1.15B25,2013-07-09 22:44:00,
2013-07-09 17:49:00,94.6,70.6,29.97,SSE,157,1.0,4.0,46,0.00,,,0.01,WeatherCatV1.15B25,2013-07-09 22:49:00,
2013-07-09 17:54:00,94.0,70.0,29.97,South,187,3.0,5.0,46,0.00,,,0.01,WeatherCatV1.15B25,2013-07-09 22:54:00,
2013-07-09 17:59:00,93.2,71.1,29.97,NE,50,0.0,2.0,49,0.00,,,0.01,WeatherCatV1.15B25,2013-07-09 22:59:00,
2013-07-09 18:05:00,92.3,70.9,29.97,SSE,148,1.0,5.0,50,0.00,,,0.01,WeatherCatV1.15B25,2013-07-09 23:05:00,
2013-07-09 18:10:00,91.3,71.7,29.97,South,189,5.0,5.0,53,0.00,,,0.01,WeatherCatV1.15B25,2013-07-09 23:10:00,
2013-07-09 18:15:00,90.6,71.6,29.97,South,188,0.0,1.0,54,0.00,,,0.01,WeatherCatV1.15B25,2013-07-09 23:15:00,
2013-07-09 18:20:00,90.6,72.2,29.96,SSW,192,1.0,1.0,55,0.00,,,0.01,WeatherCatV1.15B25,2013-07-09 23:20:00,
2013-07-09 18:25:00,91.0,72.5,29.96,SSW,210,0.0,2.0,55,0.00,,,0.01,WeatherCatV1.15B25,2013-07-09 23:25:00,
2013-07-09 18:30:00,91.8,72.7,29.97,SSW,197,0.0,0.0,54,0.00,,,0.01,WeatherCatV1.15B25,2013-07-09 23:30:00,
2013-07-09 18:35:00,92.5,72.3,29.97,SE,130,0.0,1.0,52,0.00,,,0.01,WeatherCatV1.15B25,2013-07-09 23:35:00,
2013-07-09 18:40:00,92.9,72.6,29.97,SE,126,1.0,2.0,52,0.00,,,0.01,WeatherCatV1.15B25,2013-07-09 23:40:00,
2013-07-09 18:45:00,93.2,72.3,29.96,SE,141,0.0,3.0,51,0.00,,,0.01,WeatherCatV1.15B25,2013-07-09 23:45:00,
2013-07-09 18:50:00,93.2,72.3,29.96,South,190,0.0,2.0,51,0.00,,,0.01,WeatherCatV1.15B25,2013-07-09 23:50:00,
2013-07-09 18:55:00,92.9,72.1,29.96,West,273,2.0,4.0,51,0.00,,,0.01,WeatherCatV1.15B25,2013-07-09 23:55:00,
2013-07-09 19:00:00,92.5,72.3,29.96,SSW,207,3.0,4.0,52,0.00,,,0.01,WeatherCatV1.15B25,2013-07-10 00:00:00,
2013-07-09 19:05:00,92.3,72.1,29.96,SW,221,0.0,2.0,52,0.00,,,0.01,WeatherCatV1.15B25,2013-07-10 00:05:00,
2013-07-09 19:10:00,92.5,72.8,29.96,SW,221,0.0,2.0,53,0.00,,,0.01,WeatherCatV1.15B25,2013-07-10 00:10:00,
2013-07-09 19:15:00,92.4,72.7,29.97,SSW,198,0.0,2.0,53,0.00,,,0.01,WeatherCatV1.15B25,2013-07-10 00:15:00,
2013-07-09 19:20:00,92.2,72.6,29.97,SSW,196,0.0,2.0,53,0.00,,,0.01,WeatherCatV1.15B25,2013-07-10 00:20:00,
2013-07-09 19:25:00,92.1,72.5,29.97,South,178,0.0,1.0,53,0.00,,,0.01,WeatherCatV1.15B25,2013-07-10 00:25:00,
2013-07-09 19:30:00,92.2,73.1,29.97,South,178,0.0,1.0,54,0.00,,,0.01,WeatherCatV1.15B25,2013-07-10 00:30:00,
2013-07-09 19:35:00,92.1,72.5,29.97,SE,140,4.0,4.0,53,0.00,,,0.01,WeatherCatV1.15B25,2013-07-10 00:35:00,
2013-07-09 19:40:00,91.8,72.7,29.97,SE,141,1.0,1.0,54,0.00,,,0.01,WeatherCatV1.15B25,2013-07-10 00:40:00,
2013-07-09 19:45:00,91.6,72.6,29.97,SE,136,1.0,2.0,54,0.00,,,0.01,WeatherCatV1.15B25,2013-07-10 00:45:00,
2013-07-09 19:50:00,91.5,72.5,29.97,SE,145,0.0,1.0,54,0.00,,,0.01,WeatherCatV1.15B25,2013-07-10 00:50:00,
2013-07-09 19:55:00,91.3,72.8,29.97,SE,136,0.0,2.0,55,0.00,,,0.01,WeatherCatV1.15B25,2013-07-10 00:55:00,
2013-07-09 20:00:00,91.1,73.2,29.97,SSE,160,0.0,2.0,56,0.00,,,0.01,WeatherCatV1.15B25,2013-07-10 01:00:00,
2013-07-09 20:05:00,90.9,73.0,29.97,SSE,160,0.0,1.0,56,0.00,,,0.01,WeatherCatV1.15B25,2013-07-10 01:05:00,
2013-07-09 20:10:00,90.6,73.2,29.97,SSE,166,0.0,1.0,57,0.00,,,0.01,WeatherCatV1.15B25,2013-07-10 01:10:00,
2013-07-09 20:15:00,90.3,74.0,29.97,SSE,166,0.0,1.0,59,0.00,,,0.01,WeatherCatV1.15B25,2013-07-10 01:15:00,
2013-07-09 20:20:00,90.0,73.7,29.97,SW,227,0.0,0.0,59,0.00,,,0.01,WeatherCatV1.15B25,2013-07-10 01:20:00,
2013-07-09 20:25:00,89.8,73.5,29.97,SW,227,0.0,0.0,59,0.00,,,0.01,WeatherCatV1.15B25,2013-07-10 01:25:00,
2013-07-09 20:30:00,89.5,73.7,29.97,SE,132,0.0,1.0,60,0.00,,,0.01,WeatherCatV1.15B25,2013-07-10 01:30:00,
2013-07-09 20:36:00,89.2,73.5,29.97,SE,132,0.0,0.0,60,0.00,,,0.01,WeatherCatV1.15B25,2013-07-10 01:36:00,
2013-07-09 20:41:00,89.0,73.3,29.97,SE,136,0.0,0.0,60,0.00,,,0.01,WeatherCatV1.15B25,2013-07-10 01:41:00,
2013-07-09 20:46:00,88.7,73.0,29.97,SE,136,0.0,0.0,60,0.00,,,0.01,WeatherCatV1.15B25,2013-07-10 01:46:00,
2013-07-09 20:51:00,88.5,73.3,29.97,SE,136,0.0,1.0,61,0.00,,,0.01,WeatherCatV1.15B25,2013-07-10 01:51:00,
2013-07-09 20:56:00,88.2,73.0,29.97,SW,221,5.0,5.0,61,0.00,,,0.01,WeatherCatV1.15B25,2013-07-10 01:56:00,
2013-07-09 21:01:00,88.0,72.8,29.97,SE,146,0.0,1.0,61,0.00,,,0.01,WeatherCatV1.15B25,2013-07-10 02:01:00,
2013-07-09 21:06:00,87.9,72.7,29.97,SE,140,0.0,5.0,61,0.00,,,0.01,WeatherCatV1.15B25,2013-07-10 02:06:00,
2013-07-09 21:11:00,87.7,72.5,29.97,East,93,0.0,4.0,61,0.00,,,0.01,WeatherCatV1.15B25,2013-07-10 02:11:00,
2013-07-09 21:16:00,87.7,72.5,29.98,SSE,157,1.0,2.0,61,0.00,,,0.01,WeatherCatV1.15B25,2013-07-10 02:16:00,
2013-07-09 21:21:00,87.6,72.9,29.98,East,100,0.0,3.0,62,0.00,,,0.01,WeatherCatV1.15B25,2013-07-10 02:21:00,
2013-07-09 21:26:00,87.4,72.7,29.98,SE,136,2.0,2.0,62,0.00,,,0.01,WeatherCatV1.15B25,2013-07-10 02:26:00,
2013-07-09 21:31:00,87.2,73.0,29.98,ESE,108,0.0,2.0,63,0.00,,,0.01,WeatherCatV1.15B25,2013-07-10 02:31:00,
2013-07-09 21:36:00,87.0,72.8,29.98,SW,221,2.0,6.0,63,0.00,,,0.01,WeatherCatV1.15B25,2013-07-10 02:36:00,
2013-07-09 21:41:00,86.7,73.0,29.98,SSE,155,2.0,2.0,64,0.00,,,0.01,WeatherCatV1.15B25,2013-07-10 02:41:00,
2013-07-09 21:46:00,86.5,72.8,29.99,SE,131,1.0,2.0,64,0.00,,,0.01,WeatherCatV1.15B25,2013-07-10 02:46:00,
2013-07-09 21:51:00,86.3,72.7,29.99,SE,144,0.0,4.0,64,0.00,,,0.01,WeatherCatV1.15B25,2013-07-10 02:51:00,
2013-07-09 21:56:00,86.2,72.6,29.99,SSE,155,2.0,6.0,64,0.00,,,0.01,WeatherCatV1.15B25,2013-07-10 02:56:00,
2013-07-09 22:01:00,86.0,72.8,29.99,SE,143,1.0,2.0,65,0.00,,,0.01,WeatherCatV1.15B25,2013-07-10 03:01:00,
2013-07-09 22:06:00,85.9,72.7,29.99,SE,144,0.0,5.0,65,0.00,,,0.01,WeatherCatV1.15B25,2013-07-10 03:06:00,
2013-07-09 22:11:00,85.7,73.0,29.99,South,173,2.0,2.0,66,0.00,,,0.01,WeatherCatV1.15B25,2013-07-10 03:11:00,
2013-07-09 22:16:00,85.5,72.8,29.99,SSW,194,0.0,1.0,66,0.00,,,0.01,WeatherCatV1.15B25,2013-07-10 03:16:00,
2013-07-09 22:21:00,85.3,72.6,29.99,SE,136,0.0,4.0,66,0.00,,,0.01,WeatherCatV1.15B25,2013-07-10 03:21:00,
2013-07-09 22:26:00,85.0,72.8,30.00,East,89,0.0,0.0,67,0.00,,,0.01,WeatherCatV1.15B25,2013-07-10 03:26:00,
2013-07-09 22:31:00,84.8,72.6,30.00,SE,134,2.0,6.0,67,0.00,,,0.01,WeatherCatV1.15B25,2013-07-10 03:31:00,
2013-07-09 22:36:00,84.6,72.4,30.00,SE,144,0.0,1.0,67,0.00,,,0.01,WeatherCatV1.15B25,2013-07-10 03:36:00,
2013-07-09 22:41:00,84.5,72.3,30.00,East,101,0.0,0.0,67,0.00,,,0.01,WeatherCatV1.15B25,2013-07-10 03:41:00,
2013-07-09 22:46:00,84.3,72.1,30.00,SE,144,0.0,7.0,67,0.00,,,0.01,WeatherCatV1.15B25,2013-07-10 03:46:00,
2013-07-09 22:51:00,84.1,72.4,30.01,South,182,3.0,5.0,68,0.00,,,0.01,WeatherCatV1.15B25,2013-07-10 03:51:00,
2013-07-09 22:56:00,83.9,72.2,30.01,ESE,121,1.0,4.0,68,0.00,,,0.01,WeatherCatV1.15B25,2013-07-10 03:56:00,
2013-07-09 23:01:00,83.7,72.4,30.01,SSE,159,1.0,6.0,69,0.00,,,0.01,WeatherCatV1.15B25,2013-07-10 04:01:00,
2013-07-09 23:02:00,83.6,72.3,30.01,South,181,1.0,6.0,69,0.00,,,0.01,WeatherCatV1.15B25,2013-07-10 04:02:00,
2013-07-09 23:03:00,83.6,72.3,30.01,South,181,1.0,2.0,69,0.00,,,0.01,WeatherCatV1.15B25,2013-07-10 04:03:00,
2013-07-09 23:09:00,83.4,72.1,30.01,SSE,165,1.0,5.0,69,0.00,,,0.01,WeatherCatV1.15B25,2013-07-10 04:09:00,
2013-07-09 23:14:00,83.2,72.4,30.01,SE,139,0.0,5.0,70,0.00,,,0.01,WeatherCatV1.15B25,2013-07-10 04:14:00,
2013-07-09 23:19:00,83.0,72.2,30.01,SSE,148,0.0,5.0,70,0.00,,,0.01,WeatherCatV1.15B25,2013-07-10 04:19:00,
2013-07-09 23:24:00,82.8,72.0,30.01,NE,55,1.0,5.0,70,0.00,,,0.01,WeatherCatV1.15B25,2013-07-10 04:24:00,
2013-07-09 23:29:00,82.6,72.2,30.02,SSW,203,0.0,1.0,71,0.00,,,0.01,WeatherCatV1.15B25,2013-07-10 04:29:00,
2013-07-09 23:34:00,82.4,72.0,30.02,South,182,0.0,1.0,71,0.00,,,0.01,WeatherCatV1.15B25,2013-07-10 04:34:00,
2013-07-09 23:39:00,82.3,72.3,30.02,SE,134,0.0,2.0,72,0.00,,,0.01,WeatherCatV1.15B25,2013-07-10 04:39:00,
2013-07-09 23:44:00,82.0,72.1,30.02,SE,128,1.0,2.0,72,0.00,,,0.01,WeatherCatV1.15B25,2013-07-10 04:44:00,
2013-07-09 23:49:00,81.9,72.4,30.02,SSW,199,1.0,6.0,73,0.00,,,0.01,WeatherCatV1.15B25,2013-07-10 04:49:00,
2013-07-09 23:54:00,81.7,72.6,30.03,South,175,0.0,2.0,74,0.00,,,0.01,WeatherCatV1.15B25,2013-07-10 04:54:00,
2013-07-09 23:59:00,81.5,72.4,30.03,SE,134,0.0,2.0,74,0.00,,,0.01,WeatherCatV1.15B25,2013-07-10 04:59:00,